Location: Wingville
(42.9917°N, 90.4915°W)
Time: 14:40:39
(UTC+00:00)

EO-79 - Pass Details

Date: 05 July 2022
Orbit: 588 x 603 km, 98.0° (Epoch: 18 August)

Event Time Altitude Azimuth Distance (km) Brightness Sun altitude
Rises 06:28:53 0° 35° (NE) 2,859 ? -24.0°
Reaches altitude 10° 06:32:22 10° 65° (ENE) 1,952 ? -24.0°
Maximum altitude 06:34:07 12° 90° (E) 1,801 ? -23.9°
Enters shadow 06:34:47 12° 100° (E) 1,822 ? -23.9°
